QPF
0.02 0.03 0.03 0.03 0.03 0.07 0.07 0.04 0.03 0.03 0.02 0.01 0.06 0.05 0.03 0.01 0.00 0.00 0.00 0.00 0.00 0.00 0.00 0.00 0.00 0.00 0.00 0.00 0.00 0.00 0.00 0.00 0.00 0.00 0.00 0.00 0.00 0.00 0.00 0.00 0.00 0.00 0.00 0.00 0.00 0.00 0.00 0.00 0.00 0.00 0.00 0.00 0.00 0.00
0.02 0.03 0.04 0.07 0.08 0.11 0.05 0.04 0.03 0.00 0.01 0.03 0.04 0.06 0.06 0.02 0.00 0.00 0.00 0.00 0.00 0.00 0.00 0.00 0.00 0.00 0.00 0.00 0.00 0.00 0.00 0.00 0.00 0.00 0.00 0.00 0.01 0.00 0.00 0.00 0.00 0.00 0.00 0.00 0.00 0.00 0.00 0.00 0.00 0.00 0.00 0.00 0.00 0.00
0.03 0.01 0.01 0.02 0.04 0.06 0.05 0.07 0.06 0.01 0.00 0.07 0.09 0.08 0.05 0.02 0.00 0.00 0.00 0.00 0.00 0.00 0.00 0.00 0.00 0.00 0.00 0.00 0.00 0.00 0.00 0.00 0.00 0.00 0.00 0.00 0.00 0.00 0.00 0.00 0.00 0.00 0.00 0.00 0.00 0.00 0.00 0.00 0.00 0.00 0.00 0.00 0.00 0.00
0.03 0.03 0.01 0.01 0.02 0.04 0.05 0.05 0.06 0.02 0.01 0.07 0.06 0.06 0.04 0.01 0.01 0.00 0.00 0.00 0.00 0.00 0.00 0.00 0.00 0.00 0.00 0.00 0.00 0.00 0.00 0.00 0.00 0.00 0.00 0.00 0.00 0.00 0.00 0.00 0.00 0.00 0.00 0.00 0.00 0.00 0.00 0.00 0.00 0.00 0.00 0.00 0.00 0.00
0.01 0.03 0.03 0.02 0.02 0.02 0.03 0.04 0.04 0.03 0.02 0.01 0.02 0.03 0.00 0.00 0.00 0.00 0.00 0.00 0.00 0.00 0.00 0.00 0.00 0.00 0.00 0.00 0.00 0.00 0.00 0.00 0.00 0.00 0.00 0.00 0.00 0.00 0.00 0.00 0.00 0.00 0.00 0.00 0.00 0.00 0.00 0.00 0.00 0.00 0.00 0.00 0.00 0.00
0.01 0.01 0.02 0.02 0.02 0.02 0.01 0.01 0.00 0.01 0.01 0.01 0.01 0.01 0.00 0.00 0.00 0.00 0.00 0.00 0.00 0.00 0.00 0.00 0.00 0.00 0.00 0.00 0.00 0.00 0.00 0.00 0.00 0.00 0.00 0.00 0.00 0.00 0.00 0.00 0.00 0.00 0.00 0.00 0.00 0.00 0.00 0.00 0.00 0.00 0.00 0.00 0.00 0.00
0.00 0.01 0.00 0.01 0.00 0.00 0.00 0.00 0.02 0.01 0.00 0.00 0.00 0.00 0.00 0.00 0.00 0.00 0.00 0.00 0.00 0.00 0.00 0.00 0.00 0.00 0.00 0.00 0.00 0.00 0.00 0.00 0.00 0.00 0.01 0.01 0.00 0.00 0.00 0.00 0.00 0.00 0.00 0.00 0.00 0.00 0.00 0.00 0.00 0.00 0.00 0.00 0.00 0.00
0.00 0.00 0.00 0.00 0.01 0.00 0.00 0.01 0.03 0.03 0.02 0.00 0.00 0.00 0.00 0.00 0.00 0.00 0.00 0.00 0.00 0.00 0.00 0.00 0.00 0.00 0.00 0.00 0.00 0.00 0.00 0.00 0.00 0.00 0.00 0.00 0.00 0.00 0.00 0.00 0.00 0.00 0.00 0.00 0.00 0.00 0.00 0.00 0.00 0.00 0.00 0.00 0.00 0.00
0.00 0.00 0.00 0.00 0.00 0.02 0.02 0.01 0.04 0.05 0.01 0.00 0.00 0.00 0.00 0.00 0.00 0.00 0.00 0.00 0.00 0.00 0.00 0.00 0.00 0.00 0.00 0.00 0.00 0.00 0.00 0.00 0.00 0.00 0.00 0.00 0.00 0.00 0.00 0.00 0.00 0.00 0.00 0.00 0.00 0.00 0.00 0.00 0.00 0.00 0.00 0.00 0.00 0.00
0.00 0.00 0.00 0.00 0.00 0.00 0.00 0.00 0.00 0.00 0.00 0.00 0.00 0.00 0.00 0.00 0.00 0.00 0.00 0.00 0.00 0.00 0.00 0.00 0.00 0.00 0.00 0.00 0.00 0.00 0.00 0.00 0.00 0.00 0.00 0.00 0.00 0.00 0.00 0.00 0.00 0.00 0.00 0.00 0.00 0.00 0.00 0.00 0.00 0.00 0.00 0.00 0.00 0.00
0.00 0.00 0.00 0.00 0.00 0.00 0.00 0.00 0.00 0.00 0.00 0.00 0.00 0.00 0.00 0.00 0.00 0.00 0.00 0.00 0.00 0.00 0.00 0.00 0.00 0.00 0.00 0.00 0.00 0.00 0.00 0.00 0.00 0.00 0.00 0.00 0.00 0.00 0.00 0.00 0.00 0.00 0.00 0.00 0.00 0.00 0.00 0.00 0.00 0.00 0.00 0.00 0.00 0.00
0.00 0.00 0.00 0.00 0.00 0.00 0.00 0.00 0.00 0.00 0.00 0.00 0.00 0.00 0.00 0.00 0.00 0.00 0.00 0.00 0.00 0.00 0.00 0.00 0.00 0.00 0.00 0.00 0.00 0.00 0.00 0.00 0.00 0.00 0.00 0.00 0.00 0.00 0.00 0.00 0.00 0.00 0.00 0.00 0.00 0.00 0.00 0.00 0.00 0.00 0.00 0.00 0.00 0.00
0.00 0.00 0.00 0.00 0.00 0.00 0.00 0.00 0.00 0.00 0.00 0.00 0.00 0.00 0.00 0.00 0.00 0.00 0.00 0.00 0.00 0.00 0.00 0.00 0.00 0.00 0.00 0.00 0.00 0.00 0.00 0.00 0.00 0.00 0.00 0.00 0.00 0.00 0.00 0.00 0.00 0.00 0.00 0.00 0.00 0.00 0.00 0.00 0.00 0.00 0.00 0.00 0.00 0.00
0.00 0.00 0.00 0.00 0.00 0.00 0.00 0.00 0.00 0.00 0.00 0.00 0.00 0.00 0.00 0.00 0.00 0.00 0.00 0.00 0.00 0.00 0.00 0.00 0.00 0.00 0.00 0.00 0.00 0.00 0.00 0.00 0.00 0.00 0.00 0.00 0.00 0.00 0.00 0.00 0.00 0.00 0.00 0.00 0.00 0.00 0.00 0.00 0.00 0.00 0.00 0.00 0.00 0.00
0.00 0.00 0.00 0.00 0.00 0.00 0.00 0.00 0.00 0.00 0.00 0.00 0.00 0.00 0.00 0.00 0.00 0.00 0.00 0.00 0.00 0.00 0.00 0.00 0.00 0.00 0.00 0.00 0.00 0.00 0.00 0.00 0.00 0.00 0.00 0.00 0.00 0.00 0.00 0.00 0.00 0.00 0.00 0.00 0.00 0.00 0.00 0.00 0.00 0.00 0.00 0.00 0.00 0.00
0.00 0.00 0.00 0.00 0.00 0.00 0.00 0.00 0.00 0.00 0.00 0.00 0.00 0.00 0.00 0.00 0.00 0.00 0.00 0.00 0.00 0.00 0.00 0.00 0.00 0.00 0.00 0.00 0.00 0.00 0.00 0.00 0.00 0.00 0.00 0.00 0.00 0.00 0.00 0.00 0.00 0.00 0.00 0.00 0.00 0.00 0.00 0.00 0.00 0.00 0.00 0.00 0.00 0.00
0.00 0.00 0.00 0.00 0.00 0.00 0.00 0.00 0.00 0.00 0.00 0.00 0.00 0.00 0.00 0.00 0.00 0.00 0.00 0.00 0.00 0.00 0.00 0.00 0.00 0.00 0.00 0.00 0.00 0.00 0.00 0.00 0.00 0.00 0.00 0.00 0.00 0.00 0.00 0.00 0.00 0.00 0.00 0.00 0.00 0.00 0.00 0.00 0.00 0.00 0.00 0.00 0.00 0.00
0.00 0.00 0.00 0.00 0.00 0.00 0.00 0.00 0.00 0.00 0.00 0.00 0.00 0.00 0.00 0.00 0.00 0.00 0.00 0.00 0.00 0.00 0.00 0.00 0.00 0.00 0.00 0.00 0.00 0.00 0.00 0.00 0.00 0.00 0.00 0.00 0.00 0.00 0.00 0.00 0.00 0.00 0.00 0.00 0.00 0.00 0.00 0.00 0.00 0.00 0.00 0.00 0.00 0.00
0.00 0.00 0.00 0.00 0.00 0.00 0.00 0.00 0.00 0.00 0.00 0.00 0.00 0.00 0.00 0.00 0.00 0.00 0.00 0.00 0.00 0.00 0.00 0.00 0.00 0.00 0.00 0.00 0.00 0.00 0.00 0.00 0.00 0.00 0.00 0.00 0.00 0.00 0.00 0.00 0.00 0.00 0.00 0.00 0.00 0.00 0.00 0.00 0.00 0.00 0.00 0.00 0.00 0.00
0.00 0.00 0.00 0.00 0.00 0.00 0.00 0.00 0.00 0.00 0.00 0.00 0.00 0.00 0.00 0.00 0.00 0.00 0.00 0.00 0.00 0.00 0.00 0.00 0.00 0.00 0.00 0.00 0.00 0.00 0.00 0.00 0.00 0.00 0.00 0.00 0.00 0.00 0.00 0.00 0.00 0.00 0.00 0.00 0.00 0.00 0.00 0.00 0.00 0.00 0.00 0.00 0.00 0.00
0.00 0.00 0.00 0.00 0.00 0.00 0.00 0.00 0.00 0.00 0.00 0.00 0.00 0.00 0.00 0.00 0.00 0.00 0.00 0.00 0.00 0.00 0.00 0.00 0.00 0.00 0.00 0.00 0.00 0.00 0.00 0.00 0.00 0.00 0.00 0.00 0.00 0.00 0.00 0.00 0.00 0.00 0.00 0.00 0.00 0.00 0.00 0.00 0.00 0.00 0.00 0.00 0.00 0.00
0.00 0.00 0.00 0.00 0.00 0.00 0.00 0.00 0.00 0.00 0.00 0.00 0.00 0.00 0.00 0.00 0.00 0.00 0.00 0.00 0.00 0.00 0.00 0.00 0.00 0.00 0.00 0.00 0.00 0.00 0.00 0.00 0.00 0.00 0.00 0.00 0.00 0.00 0.00 0.00 0.00 0.00 0.00 0.00 0.00 0.00 0.00 0.00 0.00 0.00 0.00 0.00 0.00 0.00
0.00 0.00 0.00 0.00 0.00 0.00 0.00 0.00 0.00 0.00 0.00 0.00 0.00 0.00 0.00 0.00 0.00 0.00 0.00 0.00 0.00 0.00 0.00 0.00 0.00 0.00 0.00 0.00 0.00 0.00 0.00 0.00 0.00 0.00 0.00 0.00 0.00 0.00 0.00 0.00 0.00 0.00 0.00 0.00 0.00 0.00 0.00 0.00 0.00 0.00 0.00 0.00 0.00 0.00
0.00 0.00 0.00 0.00 0.00 0.00 0.00 0.00 0.00 0.00 0.00 0.00 0.00 0.00 0.00 0.00 0.00 0.00 0.00 0.00 0.00 0.00 0.00 0.00 0.00 0.00 0.00 0.00 0.00 0.00 0.00 0.00 0.00 0.00 0.00 0.00 0.00 0.00 0.00 0.00 0.00 0.00 0.00 0.00 0.00 0.00 0.00 0.00 0.00 0.00 0.00 0.00 0.00 0.00
0.00 0.00 0.00 0.00 0.00 0.00 0.00 0.00 0.00 0.00 0.00 0.00 0.00 0.00 0.00 0.00 0.00 0.00 0.00 0.00 0.00 0.00 0.00 0.00 0.00 0.00 0.00 0.00 0.00 0.00 0.00 0.00 0.00 0.00 0.00 0.00 0.00 0.00 0.00 0.00 0.00 0.00 0.00 0.00 0.00 0.00 0.00 0.00 0.00 0.00 0.00 0.00 0.00 0.00
0.00 0.00 0.00 0.00 0.00 0.00 0.00 0.00 0.00 0.00 0.00 0.00 0.00 0.00 0.00 0.00 0.00 0.00 0.00 0.00 0.00 0.00 0.00 0.00 0.00 0.00 0.00 0.00 0.00 0.00 0.00 0.00 0.00 0.00 0.00 0.00 0.00 0.00 0.00 0.00 0.00 0.00 0.00 0.00 0.00 0.00 0.00 0.00 0.00 0.00 0.00 0.00 0.00 0.00
0.00 0.00 0.00 0.00 0.00 0.00 0.00 0.00 0.00 0.00 0.00 0.00 0.00 0.00 0.00 0.00 0.00 0.00 0.00 0.00 0.00 0.00 0.00 0.00 0.00 0.00 0.00 0.00 0.00 0.00 0.00 0.00 0.00 0.00 0.00 0.00 0.00 0.00 0.00 0.00 0.00 0.00 0.00 0.00 0.00 0.00 0.00 0.00 0.00 0.00 0.00 0.00 0.00 0.00
0.00 0.00 0.00 0.00 0.00 0.00 0.00 0.00 0.00 0.00 0.00 0.00 0.00 0.00 0.00 0.00 0.00 0.00 0.00 0.00 0.00 0.00 0.00 0.00 0.00 0.00 0.00 0.00 0.00 0.00 0.00 0.00 0.00 0.00 0.00 0.00 0.00 0.00 0.00 0.00 0.00 0.00 0.00 0.00 0.00 0.00 0.00 0.00 0.00 0.00 0.00 0.00 0.00 0.00
0.00 0.00 0.00 0.00 0.00 0.00 0.00 0.00 0.00 0.00 0.00 0.00 0.00 0.00 0.00 0.00 0.00 0.00 0.00 0.00 0.00 0.00 0.00 0.00 0.00 0.00 0.00 0.00 0.00 0.00 0.00 0.00 0.00 0.00 0.00 0.00 0.00 0.00 0.00 0.00 0.00 0.00 0.00 0.00 0.00 0.00 0.00 0.00 0.00 0.00 0.00 0.00 0.00 0.00
0.00 0.00 0.00 0.00 0.00 0.00 0.00 0.00 0.00 0.00 0.00 0.00 0.00 0.00 0.00 0.00 0.00 0.00 0.00 0.00 0.00 0.00 0.00 0.00 0.00 0.00 0.00 0.00 0.00 0.00 0.00 0.00 0.00 0.00 0.00 0.00 0.00 0.00 0.00 0.00 0.00 0.00 0.00 0.00 0.00 0.00 0.00 0.00 0.00 0.00 0.00 0.00 0.00 0.00
0.00 0.00 0.00 0.00 0.00 0.00 0.00 0.00 0.00 0.00 0.00 0.00 0.00 0.00 0.00 0.00 0.00 0.00 0.00 0.00 0.00 0.00 0.00 0.00 0.00 0.00 0.00 0.00 0.00 0.00 0.00 0.00 0.00 0.00 0.00 0.00 0.00 0.00 0.00 0.00 0.00 0.00 0.00 0.00 0.00 0.00 0.00 0.00 0.00 0.00 0.00 0.00 0.00 0.00
0.00 0.00 0.00 0.00 0.00 0.00 0.00 0.00 0.00 0.00 0.00 0.00 0.00 0.00 0.00 0.00 0.00 0.00 0.00 0.00 0.00 0.00 0.00 0.00 0.00 0.00 0.00 0.00 0.00 0.00 0.00 0.00 0.00 0.00 0.00 0.00 0.00 0.00 0.00 0.00 0.00 0.00 0.00 0.00 0.00 0.00 0.00 0.00 0.00 0.00 0.00 0.00 0.00 0.00
0.00 0.00 0.00 0.00 0.00 0.00 0.00 0.00 0.00 0.00 0.00 0.00 0.00 0.00 0.00 0.00 0.00 0.00 0.00 0.00 0.00 0.00 0.00 0.00 0.00 0.00 0.00 0.00 0.00 0.00 0.00 0.00 0.00 0.00 0.01 0.01 0.01 0.01 0.00 0.00 0.00 0.00 0.00 0.00 0.00 0.00 0.00 0.00 0.00 0.00 0.00 0.00 0.00 0.00
MSLP
1007.51 1006.76 1005.89 1005.32 1004.58 1003.73 1003.20 1002.86 1002.53 1002.24 1001.96 1001.83 1001.79 1001.95 1002.06 1002.23 1002.35 1003.61 1005.23 1005.62 1005.83 1006.86 1007.16 1007.24 1007.96 1009.08 1009.54 1009.92 1010.80 1011.34 1012.59 1012.94 1013.56 1013.74 1014.09 1014.02 1013.70 1013.25 1013.45 1012.78 1013.79 1014.73 1015.81 1016.07 1017.05 1017.58 1017.18 1016.04 1016.30 1016.99 1017.73 1018.01 1018.52 1018.66
1007.91 1007.05 1006.23 1005.46 1004.74 1004.19 1003.70 1003.06 1002.74 1002.34 1002.05 1001.72 1001.55 1001.89 1002.33 1002.72 1003.02 1003.74 1005.46 1005.92 1006.32 1007.55 1009.08 1009.30 1010.35 1010.90 1010.62 1009.60 1010.17 1010.52 1010.36 1010.92 1011.38 1012.29 1012.72 1012.74 1012.59 1012.35 1011.97 1012.56 1012.87 1013.80 1013.23 1014.43 1015.75 1016.25 1017.55 1018.66 1019.40 1019.96 1019.42 1019.51 1020.40 1020.57
1008.38 1007.52 1006.78 1006.01 1005.43 1004.98 1004.49 1003.17 1003.21 1002.61 1001.80 1001.57 1001.52 1001.90 1002.28 1003.02 1003.57 1004.42 1005.66 1006.39 1007.12 1007.94 1009.32 1009.89 1011.00 1011.48 1011.40 1011.33 1010.65 1010.50 1010.50 1010.25 1010.30 1010.18 1010.95 1011.38 1011.35 1011.33 1011.86 1011.97 1012.92 1013.41 1013.65 1015.19 1016.69 1018.27 1019.73 1021.17 1021.82 1022.12 1022.27 1022.59 1022.64 1022.52
1009.00 1008.26 1007.49 1006.85 1006.22 1005.59 1004.99 1004.38 1003.99 1003.58 1002.96 1002.35 1002.34 1002.85 1003.31 1003.77 1004.50 1005.08 1005.70 1006.49 1006.78 1007.58 1009.00 1011.72 1012.01 1012.68 1012.94 1011.61 1010.50 1010.48 1010.27 1010.06 1010.25 1010.45 1010.59 1010.54 1010.75 1010.80 1011.86 1012.87 1015.04 1018.13 1017.64 1018.54 1019.70 1021.35 1022.57 1023.68 1024.56 1024.86 1024.57 1024.62 1024.47 1024.24
1009.74 1008.92 1008.25 1007.61 1007.00 1006.41 1005.82 1005.28 1004.79 1004.32 1004.08 1003.88 1003.96 1004.26 1004.51 1005.01 1005.53 1005.75 1006.65 1007.50 1007.43 1007.89 1009.46 1011.79 1012.69 1013.33 1013.11 1012.32 1011.45 1010.86 1010.65 1010.69 1010.57 1010.73 1010.57 1010.57 1010.82 1011.77 1012.82 1015.41 1020.41 1022.73 1023.79 1023.89 1024.18 1025.75 1026.12 1026.28 1026.63 1026.67 1026.33 1026.30 1026.10 1025.69
1010.41 1009.72 1009.02 1008.34 1007.84 1007.38 1006.79 1006.30 1005.96 1005.75 1005.56 1005.42 1005.45 1005.71 1006.09 1005.99 1005.68 1005.98 1007.49 1008.09 1008.90 1008.94 1009.76 1012.30 1014.11 1014.14 1013.64 1013.21 1012.62 1012.15 1011.86 1011.71 1011.49 1011.55 1011.68 1011.70 1012.02 1013.00 1015.25 1020.21 1025.25 1026.43 1027.06 1027.47 1027.89 1028.11 1028.00 1027.97 1028.04 1027.96 1027.66 1027.61 1027.23 1026.83
1011.03 1010.40 1009.75 1009.23 1008.53 1008.08 1007.66 1007.31 1007.13 1007.18 1007.11 1007.05 1007.06 1007.23 1007.27 1007.13 1007.29 1009.57 1011.65 1011.26 1009.69 1009.18 1010.63 1013.50 1014.44 1015.22 1015.28 1014.47 1014.24 1014.04 1013.08 1012.78 1012.81 1012.95 1013.35 1013.88 1015.44 1016.13 1019.53 1024.31 1027.77 1028.56 1029.08 1029.48 1029.58 1029.03 1029.06 1029.24 1029.57 1029.19 1028.73 1028.18 1027.72 1027.45
1011.64 1011.02 1010.32 1009.77 1009.16 1008.73 1008.39 1008.18 1008.07 1007.94 1008.01 1008.15 1008.18 1008.19 1008.33 1008.58 1009.22 1010.45 1011.16 1010.93 1010.03 1011.24 1012.77 1015.14 1016.31 1017.04 1017.48 1016.95 1016.36 1015.80 1015.27 1014.28 1014.65 1015.13 1016.06 1017.73 1019.35 1022.15 1026.19 1028.85 1029.89 1030.51 1030.44 1030.49 1030.75 1030.71 1030.49 1030.29 1030.16 1030.13 1029.98 1029.49 1028.98 1028.66
1012.09 1011.59 1010.98 1010.47 1009.97 1009.59 1009.30 1009.11 1009.08 1008.87 1008.98 1008.99 1008.92 1008.98 1009.47 1010.49 1011.70 1012.55 1011.95 1012.03 1012.16 1013.79 1016.58 1019.13 1020.74 1020.72 1020.26 1019.73 1018.59 1017.73 1016.74 1016.37 1016.45 1017.59 1019.63 1020.74 1024.88 1028.06 1030.37 1031.18 1031.61 1031.88 1032.05 1032.06 1031.68 1031.15 1031.12 1030.94 1030.77 1030.78 1030.67 1030.50 1030.37 1029.78
1012.37 1011.94 1011.48 1011.00 1010.68 1010.19 1009.93 1009.77 1009.65 1009.57 1009.44 1009.33 1009.40 1010.14 1012.13 1013.24 1013.06 1012.65 1013.11 1014.01 1015.96 1018.20 1020.00 1022.77 1023.17 1023.51 1023.02 1022.03 1020.83 1020.41 1019.23 1019.12 1019.24 1021.26 1022.24 1025.00 1028.85 1031.09 1031.80 1032.53 1032.69 1032.81 1032.86 1032.79 1032.44 1031.94 1031.79 1031.60 1031.47 1031.26 1031.24 1030.96 1030.61 1030.35
1012.61 1012.29 1011.90 1011.43 1011.08 1010.77 1010.33 1010.11 1009.92 1009.68 1009.64 1010.28 1011.48 1013.19 1013.75 1013.26 1013.29 1014.76 1017.26 1018.97 1020.80 1023.20 1024.53 1025.40 1025.82 1025.77 1025.38 1025.31 1024.68 1023.94 1023.14 1022.16 1022.25 1023.38 1024.30 1027.60 1030.64 1032.29 1032.75 1033.42 1033.60 1033.34 1033.34 1033.34 1033.37 1033.19 1032.85 1032.65 1032.26 1031.74 1031.38 1031.28 1030.99 1030.74
1012.71 1012.48 1012.24 1011.88 1011.48 1011.26 1010.98 1010.46 1010.30 1010.78 1011.86 1012.26 1012.64 1013.77 1014.29 1015.33 1016.61 1018.74 1021.99 1023.17 1024.79 1026.91 1027.14 1027.19 1027.44 1027.45 1027.00 1026.78 1026.75 1025.95 1025.54 1024.55 1025.00 1025.06 1026.61 1029.79 1032.30 1033.04 1033.59 1033.98 1034.09 1033.69 1033.63 1033.60 1033.49 1033.26 1032.93 1032.71 1032.42 1032.15 1031.80 1031.43 1031.15 1030.82
1012.74 1012.61 1012.48 1012.35 1012.04 1011.75 1011.69 1011.73 1011.81 1012.09 1012.37 1012.71 1013.82 1016.20 1017.76 1019.76 1021.41 1023.42 1025.66 1026.60 1027.98 1028.48 1028.87 1028.74 1028.81 1028.67 1028.01 1027.84 1027.82 1027.64 1027.31 1027.03 1026.48 1027.26 1029.20 1031.29 1032.97 1033.89 1034.14 1034.53 1034.51 1034.10 1033.93 1033.73 1033.47 1033.24 1033.00 1032.76 1032.44 1032.15 1031.69 1031.21 1030.79 1030.41
1012.64 1012.73 1012.69 1012.67 1012.64 1012.47 1012.33 1012.29 1012.26 1012.48 1012.91 1015.44 1017.45 1020.24 1022.10 1024.12 1025.63 1027.07 1027.88 1028.77 1029.72 1029.75 1029.97 1030.00 1029.94 1029.69 1029.56 1029.45 1029.24 1029.66 1028.81 1028.46 1028.77 1029.74 1031.35 1032.84 1033.80 1034.24 1034.48 1034.76 1035.02 1034.96 1034.58 1034.25 1033.79 1033.33 1032.96 1032.64 1032.19 1031.86 1031.44 1030.99 1030.63 1030.09
1012.42 1012.70 1012.91 1012.93 1012.95 1013.02 1013.02 1012.90 1012.96 1013.65 1015.69 1018.39 1020.05 1023.93 1025.73 1027.03 1027.72 1028.50 1029.01 1029.68 1030.29 1030.35 1030.58 1030.56 1030.65 1030.65 1030.91 1030.95 1030.71 1030.64 1030.72 1030.65 1031.08 1031.78 1032.77 1033.50 1034.03 1034.56 1035.08 1035.43 1035.52 1035.20 1034.47 1034.05 1033.55 1033.16 1032.68 1032.35 1032.01 1031.46 1030.99 1030.50 1030.03 1029.42
1012.28 1012.76 1013.18 1013.28 1013.26 1013.40 1013.54 1013.57 1014.03 1015.71 1018.84 1021.16 1023.79 1025.85 1026.92 1027.58 1028.87 1029.21 1029.65 1030.59 1030.76 1030.69 1030.79 1030.87 1031.46 1031.49 1032.32 1032.74 1032.46 1032.70 1032.62 1032.97 1033.40 1033.57 1033.75 1034.05 1034.63 1035.11 1035.32 1034.96 1034.60 1034.19 1033.84 1033.33 1032.76 1032.31 1031.93 1031.54 1031.16 1030.55 1029.96 1029.58 1028.98 1028.47
1012.46 1013.08 1013.26 1013.63 1013.78 1014.01 1013.91 1014.59 1016.43 1019.50 1022.28 1024.68 1026.97 1027.18 1027.52 1028.38 1029.50 1030.18 1030.67 1031.24 1030.86 1030.72 1031.39 1031.43 1032.43 1033.02 1033.47 1033.52 1033.81 1033.97 1034.62 1034.53 1034.24 1034.11 1034.25 1034.67 1034.92 1035.08 1034.73 1034.48 1034.26 1033.88 1033.25 1032.61 1032.02 1031.48 1031.15 1030.72 1030.28 1030.02 1029.34 1028.43 1027.84 1027.24
1013.34 1013.50 1013.37 1013.61 1014.12 1014.53 1016.31 1017.62 1019.80 1023.13 1026.81 1028.27 1028.81 1029.63 1029.68 1030.08 1030.45 1030.96 1031.36 1031.31 1031.04 1031.08 1031.45 1032.58 1032.87 1033.78 1034.85 1035.14 1035.24 1035.23 1035.04 1034.77 1034.60 1034.52 1034.50 1034.49 1034.52 1034.54 1034.44 1034.26 1033.78 1033.26 1032.63 1031.94 1031.22 1030.61 1030.34 1030.05 1029.55 1028.85 1028.06 1027.32 1026.62 1025.93
1013.79 1013.94 1014.03 1014.13 1014.36 1015.80 1018.90 1021.40 1022.50 1026.55 1029.41 1029.94 1030.20 1030.26 1030.69 1031.32 1031.54 1031.68 1031.68 1031.56 1031.55 1031.56 1032.18 1033.23 1034.63 1035.68 1036.25 1036.30 1036.47 1036.12 1035.77 1035.37 1034.85 1034.45 1034.20 1034.06 1034.03 1033.90 1033.70 1033.43 1033.05 1032.66 1032.15 1031.51 1030.83 1030.22 1029.47 1028.89 1028.30 1027.70 1027.02 1026.47 1025.83 1025.09
1014.31 1014.57 1014.72 1014.85 1014.62 1017.36 1021.64 1024.30 1024.47 1027.14 1029.96 1030.68 1030.89 1031.45 1032.16 1032.60 1032.75 1032.87 1032.69 1032.50 1032.52 1033.19 1034.48 1035.89 1036.96 1037.57 1037.51 1037.29 1037.01 1036.58 1036.00 1035.55 1035.32 1034.66 1033.96 1033.62 1033.53 1033.35 1032.97 1032.65 1032.44 1032.06 1031.66 1030.81 1029.92 1028.82 1028.49 1027.78 1027.19 1026.57 1025.92 1025.05 1024.43 1023.91
1014.88 1015.63 1015.53 1015.87 1018.35 1020.92 1025.10 1026.95 1028.16 1029.21 1030.19 1031.33 1032.15 1032.43 1033.50 1033.51 1033.93 1034.29 1034.53 1033.99 1034.56 1036.25 1037.07 1037.57 1038.01 1038.04 1037.59 1037.38 1037.01 1036.64 1036.16 1035.82 1035.48 1035.11 1034.25 1033.32 1032.78 1032.46 1031.98 1031.52 1031.43 1031.27 1031.08 1030.46 1029.86 1028.94 1028.27 1027.52 1026.86 1026.28 1025.49 1024.58 1023.83 1023.24
1016.45 1016.29 1017.09 1018.03 1020.95 1023.78 1026.67 1028.48 1029.15 1029.72 1030.43 1031.77 1032.63 1033.31 1034.64 1035.22 1035.63 1035.89 1035.91 1035.86 1037.15 1038.04 1038.02 1038.04 1038.23 1038.13 1037.66 1037.19 1036.76 1036.34 1035.79 1035.27 1034.76 1034.25 1033.31 1032.87 1032.27 1031.86 1031.67 1031.50 1031.19 1030.76 1030.42 1030.08 1029.69 1028.90 1028.02 1027.36 1026.68 1025.52 1024.56 1023.55 1022.79 1022.18
1017.03 1017.41 1019.49 1021.17 1023.55 1026.11 1029.33 1029.03 1029.63 1030.55 1031.73 1032.70 1033.62 1034.99 1035.87 1036.22 1036.56 1036.45 1037.09 1037.57 1038.02 1037.88 1037.98 1038.14 1038.16 1037.82 1037.44 1036.58 1036.07 1035.60 1035.16 1034.80 1034.26 1033.72 1033.18 1032.78 1032.42 1032.10 1031.68 1031.31 1031.03 1030.61 1030.09 1029.72 1029.44 1028.81 1027.98 1027.02 1025.92 1024.93 1023.89 1023.17 1022.56 1021.92
1018.57 1021.75 1023.92 1025.76 1027.46 1029.44 1029.49 1030.46 1030.94 1031.53 1032.53 1033.56 1034.93 1036.18 1036.84 1037.04 1036.85 1036.90 1037.96 1038.36 1038.23 1038.10 1038.26 1038.39 1038.19 1037.59 1036.94 1036.52 1036.04 1035.41 1034.80 1034.44 1033.96 1033.49 1033.27 1032.90 1032.45 1032.04 1031.74 1031.31 1030.86 1030.42 1029.98 1029.54 1029.15 1028.48 1027.68 1026.69 1025.61 1024.85 1024.04 1023.30 1022.44 1021.65
1022.18 1027.58 1028.09 1029.86 1030.28 1030.65 1031.79 1032.97 1033.19 1033.33 1034.44 1035.34 1035.91 1036.83 1037.14 1037.23 1037.54 1038.15 1038.68 1038.70 1038.47 1038.49 1038.45 1038.39 1038.18 1037.82 1037.44 1036.63 1035.88 1035.29 1034.83 1034.46 1034.01 1033.49 1032.99 1032.71 1032.36 1032.00 1031.67 1031.31 1030.79 1030.25 1029.63 1029.28 1028.80 1028.07 1027.37 1026.64 1025.78 1024.89 1024.07 1023.20 1022.07 1021.47
1027.61 1031.19 1031.77 1032.39 1032.83 1032.82 1033.73 1034.68 1034.97 1035.25 1035.46 1036.12 1036.92 1037.15 1037.13 1037.68 1038.73 1039.03 1039.03 1039.06 1038.91 1038.90 1038.82 1038.70 1038.49 1037.93 1037.20 1036.86 1036.19 1035.37 1034.77 1034.42 1034.09 1033.46 1032.73 1032.49 1032.28 1032.09 1031.75 1031.43 1030.88 1030.03 1029.37 1029.15 1028.74 1028.05 1027.26 1026.43 1025.58 1024.72 1023.81 1023.04 1022.16 1021.52
1031.24 1033.09 1033.34 1033.44 1033.83 1034.27 1034.90 1035.30 1035.32 1035.85 1036.49 1037.11 1037.33 1037.44 1037.75 1038.64 1039.10 1039.21 1038.98 1039.02 1039.23 1039.03 1038.88 1038.71 1038.49 1038.22 1037.61 1036.71 1035.97 1035.31 1034.85 1034.26 1033.78 1033.25 1032.47 1031.96 1031.65 1031.45 1031.42 1031.37 1030.72 1029.99 1029.24 1028.81 1028.39 1027.76 1026.99 1026.08 1025.10 1024.26 1023.51 1022.79 1022.21 1021.64
1033.07 1033.95 1034.62 1035.06 1035.15 1035.51 1036.26 1036.61 1037.28 1037.55 1037.51 1037.44 1037.34 1038.24 1038.54 1039.03 1039.20 1038.95 1038.81 1038.93 1039.11 1039.01 1038.97 1038.58 1038.18 1037.93 1037.55 1036.86 1036.23 1035.46 1034.53 1033.96 1033.29 1032.46 1031.79 1031.18 1030.76 1030.61 1030.52 1030.31 1030.10 1028.77 1028.14 1028.14 1027.56 1026.86 1026.28 1025.52 1024.55 1023.58 1023.09 1022.46 1022.09 1021.74
1033.94 1034.53 1035.18 1036.05 1036.80 1037.33 1037.94 1038.13 1038.08 1038.04 1038.15 1038.28 1038.46 1038.43 1038.44 1038.43 1038.62 1038.60 1038.65 1038.79 1038.74 1039.25 1039.24 1038.88 1038.17 1037.84 1037.45 1036.69 1035.96 1035.42 1034.87 1034.31 1033.74 1032.99 1032.32 1031.56 1030.65 1030.32 1029.93 1029.67 1029.19 1028.69 1028.29 1027.87 1027.16 1026.39 1025.48 1024.38 1023.42 1022.90 1022.92 1022.67 1022.40 1022.15
1035.00 1035.10 1035.90 1036.96 1038.04 1039.06 1039.22 1039.04 1038.70 1038.42 1038.22 1038.40 1038.40 1038.28 1038.27 1038.26 1038.27 1038.24 1038.58 1038.86 1039.20 1039.66 1039.46 1039.13 1038.57 1038.20 1037.89 1037.08 1036.07 1035.23 1034.71 1034.33 1033.97 1034.06 1033.42 1032.10 1031.07 1029.93 1029.57 1029.00 1028.66 1028.26 1027.92 1027.59 1027.09 1026.32 1025.30 1024.42 1024.18 1023.97 1023.65 1023.33 1022.97 1022.87
1035.52 1035.80 1036.91 1037.88 1039.16 1039.47 1039.37 1039.13 1038.79 1038.52 1038.39 1038.71 1038.50 1038.64 1038.53 1038.48 1038.22 1038.11 1038.41 1038.56 1038.88 1039.17 1039.10 1038.84 1038.35 1038.00 1037.72 1037.38 1037.06 1036.22 1035.06 1034.17 1033.66 1032.99 1032.18 1030.89 1029.69 1029.27 1029.01 1028.63 1028.26 1028.01 1027.56 1027.18 1026.71 1026.22 1025.82 1025.33 1025.14 1024.92 1024.76 1024.57 1024.37 1024.22
1036.64 1037.64 1038.39 1039.12 1039.67 1039.53 1039.40 1039.32 1039.08 1038.82 1038.54 1038.84 1038.94 1038.70 1038.60 1038.64 1038.55 1038.09 1038.15 1038.53 1038.86 1038.96 1038.54 1038.43 1038.23 1037.76 1037.26 1037.05 1036.77 1036.38 1035.50 1034.99 1034.42 1033.25 1030.82 1028.67 1028.57 1028.82 1028.70 1028.35 1027.95 1027.68 1027.55 1027.31 1027.05 1026.77 1026.48 1026.29 1026.13 1025.99 1025.81 1025.68 1025.53 1025.41
1037.83 1038.48 1039.01 1039.56 1040.09 1040.20 1040.00 1039.95 1039.29 1039.02 1038.85 1038.85 1038.96 1038.90 1038.82 1038.83 1038.36 1037.78 1037.90 1038.34 1038.42 1038.33 1038.17 1037.74 1037.28 1036.83 1036.66 1036.57 1036.26 1035.76 1034.86 1034.82 1034.30 1032.14 1030.63 1028.74 1027.28 1027.29 1028.36 1028.29 1028.17 1027.91 1027.78 1027.68 1027.56 1027.36 1027.21 1027.15 1027.07 1026.94 1026.80 1026.67 1026.51 1026.30
Thickness
5266 5267 5269 5269 5272 5276 5279 5281 5286 5297 5313 5328 5345 5356 5366 5376 5389 5385 5378 5383 5389 5392 5400 5408 5410 5404 5405 5405 5394 5398 5386 5382 5381 5385 5385 5389 5395 5413 5413 5437 5413 5419 5411 5412 5414 5411 5425 5429 5451 5462 5435 5412 5412 5409
5264 5267 5270 5272 5274 5276 5279 5283 5286 5291 5305 5323 5336 5345 5351 5357 5370 5372 5368 5372 5378 5376 5368 5367 5360 5364 5375 5399 5400 5392 5401 5395 5396 5386 5383 5389 5396 5394 5423 5413 5424 5409 5423 5418 5420 5427 5386 5381 5384 5376 5395 5401 5390 5394
5262 5264 5268 5271 5272 5274 5278 5286 5284 5290 5305 5320 5332 5340 5342 5344 5348 5353 5356 5359 5360 5359 5353 5355 5350 5348 5354 5357 5369 5387 5382 5392 5390 5396 5393 5392 5395 5405 5406 5419 5410 5423 5414 5420 5406 5375 5360 5350 5345 5345 5348 5346 5348 5355
5260 5260 5262 5266 5269 5273 5277 5280 5282 5286 5297 5310 5319 5321 5324 5328 5332 5336 5341 5344 5350 5351 5353 5326 5324 5324 5328 5345 5358 5362 5370 5371 5375 5377 5382 5387 5390 5395 5398 5394 5388 5335 5345 5355 5359 5325 5320 5311 5307 5307 5316 5316 5317 5322
5262 5261 5260 5262 5265 5268 5272 5276 5281 5288 5292 5297 5299 5301 5303 5307 5312 5322 5322 5322 5329 5336 5333 5314 5308 5310 5316 5328 5341 5347 5352 5356 5363 5364 5369 5375 5375 5375 5372 5349 5273 5264 5258 5293 5307 5258 5265 5274 5274 5277 5286 5286 5289 5295
5265 5263 5262 5262 5262 5264 5268 5273 5276 5278 5282 5285 5287 5287 5289 5293 5301 5309 5306 5306 5305 5310 5312 5302 5285 5289 5299 5310 5318 5324 5329 5335 5342 5347 5348 5349 5348 5356 5361 5255 5229 5229 5228 5232 5232 5230 5238 5246 5247 5248 5255 5256 5261 5266
5270 5267 5264 5263 5263 5262 5264 5268 5269 5269 5270 5273 5274 5275 5276 5281 5282 5267 5259 5269 5286 5295 5297 5280 5275 5269 5272 5287 5292 5295 5307 5312 5315 5320 5323 5327 5292 5294 5262 5232 5201 5201 5203 5204 5205 5211 5222 5216 5215 5220 5225 5230 5235 5237
5271 5270 5268 5267 5266 5265 5264 5262 5261 5263 5263 5262 5263 5264 5265 5265 5263 5256 5253 5259 5269 5263 5253 5242 5235 5242 5239 5253 5259 5267 5273 5287 5277 5278 5276 5263 5250 5216 5172 5168 5172 5172 5177 5181 5178 5180 5185 5188 5192 5193 5194 5200 5204 5207
5271 5269 5269 5267 5266 5264 5262 5260 5258 5257 5255 5254 5253 5254 5251 5243 5234 5229 5236 5239 5243 5234 5200 5180 5167 5180 5199 5209 5223 5233 5246 5256 5252 5244 5222 5221 5171 5136 5137 5140 5144 5145 5144 5147 5151 5160 5162 5163 5164 5166 5167 5169 5170 5175
5270 5268 5267 5267 5265 5264 5262 5259 5257 5255 5253 5251 5249 5241 5226 5214 5217 5220 5213 5206 5194 5178 5170 5140 5147 5146 5163 5172 5183 5190 5202 5206 5216 5184 5183 5151 5120 5113 5112 5111 5113 5116 5118 5119 5122 5128 5130 5134 5137 5139 5139 5141 5143 5147
5268 5266 5265 5264 5263 5262 5261 5259 5257 5255 5253 5246 5230 5212 5211 5214 5211 5194 5165 5158 5149 5127 5122 5119 5110 5113 5126 5117 5117 5134 5123 5141 5150 5143 5144 5117 5095 5085 5082 5079 5079 5081 5081 5082 5084 5087 5091 5095 5101 5107 5110 5112 5115 5118
5267 5264 5262 5261 5260 5258 5256 5257 5255 5247 5234 5228 5223 5213 5206 5192 5179 5159 5124 5127 5116 5097 5097 5095 5095 5092 5095 5099 5095 5101 5103 5106 5110 5124 5102 5071 5063 5055 5050 5049 5050 5050 5050 5052 5052 5055 5059 5063 5066 5069 5072 5076 5082 5086
5266 5262 5259 5256 5255 5253 5250 5246 5242 5236 5230 5224 5206 5183 5171 5152 5139 5116 5097 5101 5089 5084 5074 5078 5075 5075 5083 5080 5072 5072 5070 5082 5086 5072 5056 5043 5028 5023 5020 5017 5019 5021 5021 5023 5025 5028 5031 5033 5036 5040 5045 5049 5053 5058
5264 5259 5255 5252 5249 5246 5243 5240 5236 5230 5219 5191 5171 5148 5134 5110 5106 5101 5096 5083 5067 5067 5059 5056 5059 5054 5052 5053 5050 5048 5054 5053 5041 5033 5025 5015 5006 5001 4994 4993 4990 4990 4992 4995 4996 4998 5000 5004 5009 5011 5016 5021 5025 5031
5263 5256 5250 5247 5243 5239 5236 5233 5228 5219 5197 5168 5157 5115 5095 5090 5080 5070 5066 5064 5050 5046 5044 5041 5039 5034 5028 5025 5025 5021 5014 5024 5015 5012 5002 4995 4980 4976 4967 4961 4961 4960 4963 4965 4971 4975 4976 4978 4983 4991 4992 4998 5002 5009
5261 5253 5246 5241 5238 5233 5228 5224 5216 5199 5166 5145 5122 5101 5097 5090 5070 5066 5062 5045 5037 5034 5030 5030 5027 5011 5001 4987 4999 4994 4983 4981 4979 4970 4971 4969 4957 4950 4946 4944 4942 4942 4943 4951 4955 4956 4961 4962 4965 4973 4977 4978 4985 4991
5256 5248 5242 5236 5230 5225 5221 5212 5193 5161 5136 5119 5090 5096 5092 5082 5061 5048 5045 5031 5029 5030 5019 5015 4995 4991 4979 4973 4970 4962 4953 4958 4957 4954 4948 4933 4924 4925 4923 4924 4923 4925 4927 4928 4933 4933 4935 4941 4943 4948 4957 4963 4967 4976
5248 5244 5239 5233 5225 5218 5199 5184 5163 5131 5093 5076 5081 5062 5059 5049 5042 5035 5026 5022 5022 5023 5013 4989 4991 4974 4964 4954 4955 4955 4944 4940 4935 4928 4924 4917 4907 4901 4899 4896 4898 4898 4900 4903 4906 4912 4913 4914 4920 4931 4939 4946 4954 4962
5242 5238 5232 5227 5221 5205 5176 5152 5141 5091 5062 5064 5056 5055 5048 5039 5034 5024 5021 5018 5012 5009 5000 4982 4961 4951 4952 4944 4934 4927 4921 4917 4916 4914 4908 4895 4885 4877 4878 4876 4874 4871 4869 4871 4875 4882 4889 4894 4902 4910 4919 4927 4937 4945
5236 5230 5225 5219 5215 5189 5153 5125 5124 5096 5060 5054 5056 5045 5031 5022 5016 5011 5008 5004 5001 4981 4965 4944 4936 4930 4920 4915 4914 4909 4905 4899 4890 4888 4887 4882 4871 4858 4858 4850 4847 4842 4841 4845 4852 4862 4866 4873 4884 4894 4904 4915 4926 4936
5230 5221 5216 5211 5185 5158 5119 5097 5085 5069 5060 5043 5032 5032 5014 5012 4998 4988 4979 4983 4966 4940 4931 4927 4914 4908 4902 4900 4897 4895 4887 4879 4870 4861 4857 4856 4853 4843 4838 4833 4823 4819 4817 4818 4821 4831 4838 4850 4860 4870 4882 4897 4910 4920
5214 5212 5200 5191 5164 5136 5107 5087 5076 5067 5056 5035 5026 5020 4997 4984 4976 4964 4959 4957 4935 4927 4921 4915 4907 4901 4902 4896 4890 4881 4876 4869 4860 4854 4850 4839 4830 4825 4816 4806 4801 4801 4799 4797 4803 4809 4820 4831 4843 4859 4875 4890 4904 4915
5210 5203 5180 5167 5146 5119 5083 5080 5068 5056 5047 5029 5015 4999 4981 4970 4967 4966 4958 4941 4931 4925 4918 4909 4901 4895 4893 4893 4886 4878 4870 4863 4855 4847 4838 4826 4815 4806 4798 4791 4787 4786 4787 4789 4792 4799 4810 4825 4841 4857 4872 4884 4895 4905
5199 5165 5145 5123 5110 5084 5084 5066 5061 5051 5036 5025 5002 4988 4974 4968 4969 4969 4938 4935 4929 4924 4913 4901 4901 4898 4893 4885 4880 4877 4871 4862 4851 4840 4829 4819 4809 4800 4792 4787 4785 4784 4786 4790 4794 4803 4814 4828 4844 4855 4868 4878 4890 4902
5170 5126 5119 5095 5082 5080 5064 5045 5038 5039 5016 5006 4993 4984 4983 4973 4968 4942 4940 4928 4924 4919 4911 4903 4896 4893 4887 4884 4879 4873 4866 4857 4849 4840 4834 4825 4816 4808 4801 4797 4794 4795 4799 4801 4806 4816 4825 4835 4846 4858 4868 4880 4894 4902
5110 5091 5086 5070 5062 5059 5042 5030 5022 5015 5008 4997 4989 4981 4970 4956 4932 4931 4938 4925 4920 4913 4908 4902 4894 4889 4886 4881 4877 4872 4866 4857 4850 4847 4844 4836 4828 4820 4814 4810 4808 4813 4817 4818 4821 4828 4837 4846 4855 4865 4875 4885 4896 4903
5104 5082 5078 5075 5066 5059 5049 5041 5036 5024 4997 4990 4985 4975 4966 4943 4933 4938 4935 4928 4919 4914 4909 4902 4893 4887 4883 4880 4877 4873 4866 4863 4859 4855 4854 4849 4844 4840 4833 4826 4827 4831 4834 4836 4839 4844 4850 4858 4868 4876 4883 4891 4899 4906
5093 5079 5067 5058 5052 5049 5033 5027 5016 5003 5003 4998 4993 4969 4964 4953 4948 4941 4933 4927 4919 4914 4908 4903 4897 4891 4886 4883 4877 4873 4872 4869 4866 4867 4867 4865 4863 4858 4853 4851 4849 4852 4857 4855 4858 4863 4867 4873 4880 4888 4894 4901 4905 4909
5094 5087 5073 5050 5044 5039 5024 5020 5022 5014 5001 4989 4984 4982 4975 4962 4951 4944 4939 4932 4925 4915 4906 4903 4899 4893 4889 4888 4885 4881 4878 4874 4873 4870 4869 4872 4875 4870 4867 4865 4864 4865 4866 4867 4872 4877 4882 4890 4898 4902 4901 4904 4908 4911
5088 5086 5074 5053 5044 5034 5022 5015 5012 5005 5001 4993 4987 4980 4975 4966 4956 4951 4943 4935 4926 4917 4911 4907 4902 4891 4887 4888 4890 4889 4886 4882 4880 4872 4867 4873 4877 4880 4878 4879 4877 4877 4877 4878 4880 4884 4891 4897 4899 4900 4903 4906 4911 4912
5096 5087 5073 5062 5045 5033 5025 5018 5015 5016 5005 4991 4983 4978 4976 4967 4962 4956 4949 4942 4933 4924 4916 4911 4907 4900 4893 4890 4885 4884 4886 4889 4888 4885 4882 4888 4894 4892 4890 4889 4889 4888 4888 4890 4892 4894 4896 4898 4900 4902 4903 4905 4907 4910
5092 5069 5066 5064 5049 5034 5026 5018 5014 5017 5010 4999 4989 4976 4972 4966 4961 4960 4955 4945 4935 4928 4929 4920 4912 4911 4908 4903 4898 4893 4893 4892 4890 4890 4899 4910 4904 4901 4900 4899 4898 4897 4897 4897 4897 4898 4899 4900 4901 4902 4905 4906 4908 4909
5079 5070 5062 5055 5050 5040 5028 5020 5024 5023 5012 5004 4994 4984 4974 4974 4975 4972 4963 4955 4946 4939 4934 4929 4924 4921 4916 4911 4907 4904 4902 4898 4896 4900 4903 4910 4915 4914 4909 4907 4905 4904 4902 4901 4901 4901 4902 4903 4904 4905 4907 4907 4908 4909